Regional Weather Roundup
Issued by NWS

Home | Current Version | Previous Version | Text Only | Print | Product List | Glossary Off
Versions: 1 2 3 4 5 6 7 8 9 10 11 12 13 14 15 16 17 18 19 20 21 22 23 24 25 26 27 28 29 30 31 32 33 34 35 36 37 38 39 40 41 42 43 44 45 46 47 48 49 50

000
ASUS43 KLMK 270210
RWRKY
KENTUCKY REGIONAL WEATHER ROUNDUP
NATIONAL WEATHER SERVICE LOUISVILLE KY
1000 PM EDT THU MAY 26 2016

NOTE "FAIR" INDICATES FEW OR NO CLOUDS BELOW 12,000 FEET
WITH NO SIGNIFICANT WEATHER AND/OR OBSTRUCTIONS TO VISIBILITY.

KYZ001>023-026-027-061>063-070>075-270300-
WESTERN AND SOUTH CENTRAL KENTUCKY

CITY           SKY/WX    TMP DP  RH WIND       PRES   REMARKS
PADUCAH        CLOUDY    69  63  81 S9        29.97R
HENDERSON      MOCLDY    70  63  78 S6        29.97R
OWENSBORO      CLOUDY    69  65  87 NW3       29.98R
HOPKINSVILLE   PTCLDY    69  66  91 S10       29.98F
BOWLING GREEN  CLOUDY    68  66  93 S10       30.03R
GLASGOW        CLOUDY    65  65 100 SW6       30.04R
$$

KYZ024-025-028>034-038-045-046-053-270300-
NORTH CENTRAL KENTUCKY

CITY           SKY/WX    TMP DP  RH WIND       PRES   REMARKS
LOUISVILLE/SDF CLOUDY    68  64  87 SE7       29.99S
LOUISVILLE/LOU CLOUDY    68  64  87 SE3       30.00S
FORT KNOX      CLOUDY    66  64  92 SE6       29.99R
$$

KYZ035>037-039>044-047>052-055>060-089>105-270300-
NORTHEAST KENTUCKY

CITY           SKY/WX    TMP DP  RH WIND       PRES   REMARKS
LEXINGTON      PTCLDY    64  62  93 SE7       30.02S
COVINGTON      CLOUDY    67  65  93 SW7       30.01R
FRANKFORT      CLOUDY    66  62  87 CALM      30.01R
$$

KYZ054-064>069-076>088-106>120-270300-
SOUTHEAST KENTUCKY

CITY           SKY/WX    TMP DP  RH WIND       PRES   REMARKS
JACKSON        CLEAR     67  62  84 CALM      30.05S
LONDON         PTCLDY    66  60  81 SE8       30.04F
SOMERSET       PTCLDY    63  63 100 CALM      30.06R
MIDDLESBORO    CLEAR     65  62  89 CALM      30.09F
MONTICELLO     NOT AVBL
$$





USA.gov is the U.S. government's official web portal to all federal, state and local government web resources and services.